Wind_Speed
38 39 40 40 41 42 42 43 42 43 45 45 46 46 46 47 48 49 49 49 48 48 48 49 50 50 50 50 50 51 51 52 51 50 50 50 50 50 50 50 50 50 49
38 38 39 40 41 41 42 43 43 44 45 46 47 48 48 48 48 48 49 49 49 49 49 49 49 49 49 49 49 49 50 51 50 48 48 49 49 49 50 50 50 49 48
36 38 39 40 41 41 41 43 44 44 44 46 47 48 48 48 48 49 48 49 49 50 50 49 48 47 47 48 47 47 48 48 48 48 47 47 47 47 48 49 49 49 48
36 37 39 40 41 41 41 43 43 42 43 45 47 48 48 48 48 48 48 48 49 49 49 48 48 48 47 47 47 47 47 47 47 46 45 45 44 45 46 46 46 46 46
35 36 38 39 40 41 42 42 43 43 43 43 45 46 47 48 48 48 48 47 47 46 46 46 46 46 46 46 47 47 47 47 46 45 44 42 43 43 43 43 42 42 41
34 35 36 37 38 40 41 41 42 42 42 42 43 44 44 45 45 46 46 46 45 45 44 44 44 45 46 46 46 46 46 45 44 43 42 41 41 41 40 39 38 38 37
33 34 34 36 37 38 38 38 40 39 39 39 39 40 42 42 43 43 43 42 42 42 42 42 42 43 44 44 44 44 44 44 43 42 41 39 38 38 38 37 37 36 35
32 32 32 33 34 35 36 37 37 36 37 36 36 36 37 37 37 38 38 38 38 38 39 39 39 40 41 42 43 43 43 41 40 38 37 36 35 35 35 34 33 33 32
30 31 31 32 32 33 34 34 34 34 34 34 33 33 33 33 33 34 35 35 36 36 37 37 37 37 38 40 39 39 39 38 37 35 34 34 34 33 32 32 31 31 30
28 28 30 31 31 31 31 31 30 30 29 29 29 29 30 30 30 31 31 32 33 34 35 35 35 36 36 35 34 34 34 34 34 33 33 32 31 31 31 31 31 30 29
27 27 28 28 29 29 28 27 27 27 27 27 27 28 28 29 29 29 29 30 30 30 31 32 33 33 32 31 31 31 30 30 30 30 30 30 29 30 30 29 29 27 26
26 26 26 25 25 25 25 25 25 26 26 26 26 27 27 27 27 28 28 27 28 28 28 29 29 29 28 28 27 28 28 27 27 27 28 29 29 28 28 27 26 25 25
25 24 23 23 23 23 23 23 24 25 25 25 25 25 25 25 25 25 24 24 25 26 26 26 26 25 24 24 24 25 26 25 25 25 26 26 26 26 26 25 25 25 25
23 22 22 22 21 21 22 22 23 23 24 24 24 23 22 21 22 21 21 21 23 24 24 23 23 22 22 22 23 23 23 23 24 24 25 24 24 24 24 24 24 25 25
22 21 21 21 21 21 22 23 23 23 22 21 20 20 20 20 19 19 19 20 21 21 20 20 20 21 21 22 22 22 22 22 22 22 22 23 22 22 22 22 22 22 22
22 21 21 20 20 20 21 21 20 19 19 18 17 17 17 17 18 18 18 19 19 19 19 18 18 19 19 20 20 20 19 19 20 20 20 19 19 19 19 20 20 20 20
21 20 21 20 21 21 20 20 19 18 18 17 17 16 16 16 16 16 16 16 17 18 17 17 17 17 18 18 18 18 18 18 18 18 17 17 17 17 17 17 17 16 17
20 20 20 20 20 20 19 18 18 17 16 15 15 15 15 15 14 14 14 15 15 15 16 16 16 17 17 18 17 17 17 16 16 15 15 15 15 14 14 14 13 13 13
19 19 19 18 18 17 16 15 15 14 13 13 13 13 13 13 13 13 14 14 14 14 14 14 15 15 16 15 15 15 15 15 14 14 14 13 12 12 11 11 10 10 10
18 17 17 16 16 15 14 13 13 12 12 12 12 12 12 12 12 13 13 14 14 14 14 14 15 14 14 14 13 13 13 13 13 13 12 12 11 10 10 10 9 9 9
16 16 15 14 13 12 12 12 11 11 11 11 11 11 11 12 12 13 13 13 13 14 14 14 14 14 13 13 13 13 12 12 12 12 11 11 11 11 10 9 9 9 9
16 15 14 13 12 12 11 11 10 10 11 11 11 11 11 12 13 13 13 13 13 14 14 14 14 13 13 13 13 13 12 12 12 12 12 11 11 10 10 10 9 9 9
14 14 13 12 12 12 11 11 11 11 11 11 11 12 12 13 13 13 13 13 13 14 14 14 14 13 13 13 12 11 10 10 10 11 11 11 11 10 10 9 9 9 9
13 13 12 12 12 12 11 11 11 11 12 12 12 13 13 13 13 13 13 13 13 14 14 13 13 12 12 11 11 11 10 10 10 10 10 10 9 9 9 9 9 8 8
12 12 12 11 12 12 11 11 11 12 13 13 13 14 13 13 13 13 13 13 13 13 12 12 11 10 9 9 9 9 9 9 9 9 9 9 9 9 9 9 9 8 7
12 11 11 11 11 11 11 12 12 13 13 13 13 14 14 13 13 13 13 13 12 11 11 10 9 9 9 8 8 8 8 9 9 9 9 9 8 8 8 8 8 7 7
Wind_Direction
264 264 266 266 266 266 266 263 262 262 262 263 264 266 267 266 267 266 266 266 267 268 268 269 270 271 273 274 274 275 275 276 278 278 278 277 277 278 278 278 279 279 280
266 266 266 267 266 266 267 265 264 263 264 264 264 265 266 267 267 267 267 266 267 268 269 270 271 272 273 273 274 275 275 277 278 278 278 278 278 277 277 278 278 279 280
270 268 267 267 267 268 267 267 266 266 267 267 266 266 266 266 267 267 267 267 268 268 269 270 271 273 273 273 274 275 276 277 278 279 279 279 278 277 277 278 278 279 279
272 271 269 269 268 268 269 269 268 269 270 269 267 266 266 266 267 267 268 269 269 270 270 271 272 272 272 273 273 275 276 277 278 279 280 279 277 277 278 278 278 279 278
273 272 271 270 270 270 270 269 269 269 271 271 269 268 268 267 268 268 269 269 270 271 271 271 272 272 273 274 275 275 276 278 279 279 279 278 278 279 280 279 279 279 279
275 274 273 272 272 273 271 271 270 270 271 272 271 269 268 268 268 268 269 269 269 270 271 271 271 272 274 275 276 276 277 278 278 277 278 278 279 279 278 279 279 278 277
278 277 275 274 274 275 274 274 272 270 271 271 271 270 268 268 268 269 269 270 270 270 271 271 272 274 274 274 274 274 275 276 276 276 276 278 279 279 279 278 278 277 277
280 278 276 275 275 275 274 273 271 270 270 271 271 272 271 270 269 269 269 270 270 269 270 272 274 275 274 274 274 274 275 275 275 275 276 278 278 278 278 278 277 277 277
283 280 278 276 277 276 275 273 272 271 271 271 272 273 271 270 270 271 271 270 269 269 270 273 275 276 276 276 275 274 274 274 273 273 275 276 277 277 276 276 277 277 279
285 284 282 279 279 278 276 275 274 273 272 271 271 272 271 271 271 271 272 271 270 270 272 274 276 277 278 276 275 275 274 274 272 273 274 276 276 276 276 277 277 278 279
287 286 285 284 281 278 275 274 273 273 272 271 272 273 272 272 271 273 274 272 272 273 275 277 277 277 277 276 276 275 275 274 273 273 273 274 275 275 275 276 278 278 279
290 289 287 286 283 280 275 272 272 273 273 273 274 274 272 271 272 274 273 274 274 274 277 279 278 278 277 275 274 274 274 274 275 275 273 274 275 275 275 276 276 277 278
291 289 288 287 285 281 278 276 274 276 275 275 276 275 272 270 273 274 273 275 275 276 279 280 279 278 275 274 274 274 275 274 274 274 274 275 275 275 276 276 276 276 277
292 289 286 285 285 283 280 280 279 279 278 276 275 274 273 273 274 274 275 276 277 279 280 279 277 276 275 274 274 275 274 274 275 275 276 276 275 274 274 274 275 276 276
291 289 286 284 283 283 284 282 280 279 276 275 275 274 272 272 273 274 276 278 280 280 280 279 277 276 275 276 276 276 276 275 275 275 275 274 273 274 274 274 275 276 275
290 288 285 285 283 285 287 286 283 279 275 274 274 273 274 275 276 277 279 280 280 281 281 281 279 278 278 279 280 278 276 275 275 274 275 274 274 273 276 277 277 275 273
290 288 284 284 284 285 285 283 280 278 275 274 274 274 276 277 278 280 282 282 283 284 283 282 282 282 283 283 282 280 276 274 273 274 275 275 274 275 277 278 276 272 272
290 288 287 286 285 284 283 281 279 277 275 274 274 275 276 276 279 282 284 286 286 285 284 283 283 285 286 286 284 282 279 275 274 275 275 274 274 274 274 276 272 269 270
290 290 289 288 286 285 283 282 278 276 275 275 276 274 275 277 281 284 286 288 288 287 286 287 289 290 290 287 284 280 277 273 272 272 272 271 270 270 269 270 273 271 271
292 291 290 288 286 283 281 279 279 277 276 275 275 274 276 280 284 286 287 289 290 290 290 292 294 294 292 289 286 281 277 273 271 269 268 264 263 264 267 270 272 271 271
292 291 289 286 284 281 279 279 278 277 274 273 273 276 279 282 283 286 289 291 291 292 293 295 296 294 291 288 285 281 274 270 268 266 264 260 260 264 265 266 268 270 269
289 288 285 282 281 280 278 278 278 277 276 276 276 278 280 282 285 288 291 291 293 295 297 297 296 293 289 286 284 281 274 268 266 265 262 260 261 262 262 263 265 267 268
289 286 283 282 282 281 280 276 277 277 278 278 277 278 279 282 286 288 290 291 293 295 295 294 292 290 287 284 282 276 271 268 265 264 262 258 258 262 262 264 266 268 267
288 286 284 282 281 281 280 278 278 278 279 279 279 280 280 283 285 287 289 291 294 297 296 294 292 289 287 283 277 269 264 264 262 260 256 255 258 259 259 261 264 266 267
289 287 284 281 279 278 278 279 280 281 281 280 280 280 281 282 283 285 288 291 295 296 296 293 290 287 284 280 273 264 260 259 257 255 252 253 257 258 259 259 261 265 267
290 288 285 281 280 279 279 281 281 283 282 281 281 281 281 280 281 284 286 290 291 291 291 289 286 282 279 273 266 260 258 256 254 253 251 252 255 258 260 259 258 259 260
Height
5609 5610 5610 5611 5611 5612 5613 5614 5615 5616 5617 5618 5619 5620 5620 5620 5621 5622 5623 5623 5624 5624 5625 5625 5625 5624 5624 5624 5623 5622 5621 5620 5620 5622 5620 5618 5615 5614 5612 5611 5610 5608 5607
5599 5599 5600 5600 5601 5601 5602 5602 5604 5605 5605 5606 5606 5607 5608 5608 5608 5609 5609 5610 5611 5612 5612 5612 5612 5611 5611 5610 5609 5608 5608 5606 5605 5606 5605 5604 5602 5600 5598 5597 5596 5595 5593
5589 5589 5589 5589 5590 5590 5590 5591 5591 5592 5593 5593 5594 5595 5595 5595 5596 5596 5597 5597 5598 5598 5598 5598 5598 5598 5597 5597 5596 5595 5594 5593 5592 5591 5591 5589 5588 5586 5584 5583 5582 5581 5580
5579 5578 5578 5578 5578 5579 5579 5579 5579 5580 5580 5581 5581 5582 5582 5583 5583 5583 5583 5584 5584 5585 5585 5585 5585 5584 5584 5584 5583 5583 5581 5580 5579 5577 5577 5576 5574 5572 5571 5570 5569 5567 5566
5569 5568 5568 5567 5567 5567 5567 5567 5567 5567 5568 5568 5568 5569 5569 5570 5570 5570 5571 5571 5572 5572 5572 5572 5571 5571 5571 5570 5570 5569 5568 5567 5566 5565 5564 5563 5562 5560 5559 5558 5557 5556 5555
5558 5557 5557 5556 5556 5555 5555 5555 5555 5555 5556 5556 5556 5556 5557 5557 5557 5557 5558 5559 5560 5560 5560 5560 5559 5559 5558 5557 5557 5556 5555 5554 5553 5552 5552 5551 5550 5548 5547 5546 5545 5545 5545
5548 5547 5546 5546 5545 5545 5544 5544 5543 5543 5544 5544 5544 5544 5544 5544 5544 5545 5545 5546 5547 5547 5547 5547 5547 5546 5545 5544 5544 5543 5543 5541 5541 5540 5540 5539 5538 5538 5537 5537 5535 5534 5534
5539 5537 5536 5536 5535 5535 5534 5533 5532 5532 5532 5533 5533 5533 5533 5533 5533 5533 5534 5535 5535 5536 5536 5536 5535 5534 5533 5532 5531 5531 5530 5530 5529 5529 5529 5529 5528 5527 5527 5526 5526 5525 5525
5530 5528 5527 5526 5525 5524 5523 5523 5522 5522 5522 5522 5522 5523 5523 5523 5523 5523 5524 5524 5525 5526 5525 5525 5524 5523 5521 5520 5519 5519 5519 5519 5518 5518 5518 5518 5518 5517 5517 5517 5517 5516 5516
5521 5520 5519 5517 5516 5515 5514 5514 5513 5513 5513 5513 5513 5514 5514 5514 5514 5514 5514 5515 5515 5516 5515 5514 5513 5512 5511 5509 5509 5508 5509 5508 5508 5508 5508 5509 5509 5509 5509 5508 5508 5507 5507
5514 5512 5510 5509 5508 5507 5506 5505 5505 5505 5504 5504 5505 5505 5505 5505 5505 5506 5506 5505 5505 5505 5505 5505 5504 5502 5501 5500 5500 5499 5499 5499 5499 5499 5499 5500 5500 5500 5500 5500 5499 5499 5499
5507 5505 5503 5502 5500 5499 5498 5498 5497 5497 5497 5496 5497 5497 5497 5497 5498 5497 5497 5497 5496 5496 5496 5496 5495 5493 5492 5492 5492 5491 5491 5491 5491 5491 5491 5491 5492 5492 5491 5491 5491 5491 5491
5500 5498 5497 5495 5494 5492 5492 5491 5491 5490 5489 5489 5490 5490 5490 5490 5490 5490 5489 5489 5488 5488 5488 5487 5486 5485 5484 5484 5484 5484 5483 5483 5483 5483 5483 5483 5484 5483 5483 5483 5483 5483 5484
5494 5492 5491 5489 5488 5487 5486 5485 5484 5483 5483 5483 5483 5483 5483 5483 5483 5483 5482 5482 5481 5481 5480 5479 5479 5478 5478 5477 5477 5477 5476 5476 5476 5476 5476 5476 5476 5476 5475 5475 5476 5476 5476
5488 5486 5485 5484 5483 5482 5480 5479 5478 5477 5476 5477 5477 5477 5477 5477 5477 5476 5476 5476 5475 5475 5474 5473 5473 5472 5471 5471 5470 5470 5469 5469 5469 5469 5468 5468 5468 5468 5468 5468 5468 5468 5469
5482 5481 5479 5478 5477 5476 5475 5474 5472 5472 5471 5471 5471 5471 5471 5471 5471 5471 5470 5470 5469 5469 5468 5467 5467 5466 5466 5465 5464 5463 5463 5462 5462 5462 5462 5461 5462 5462 5462 5462 5462 5462 5462
5476 5475 5474 5473 5472 5471 5469 5468 5467 5467 5466 5466 5465 5466 5466 5466 5466 5466 5465 5465 5464 5463 5463 5462 5462 5461 5460 5459 5458 5457 5457 5457 5456 5456 5456 5456 5456 5456 5456 5456 5456 5456 5456
5471 5469 5468 5467 5466 5465 5464 5463 5462 5462 5462 5461 5461 5461 5461 5461 5461 5461 5461 5460 5460 5459 5458 5457 5457 5456 5455 5454 5453 5452 5452 5451 5451 5451 5451 5451 5451 5451 5451 5451 5451 5451 5451
5465 5464 5463 5461 5460 5459 5458 5458 5458 5457 5457 5457 5457 5457 5457 5457 5457 5457 5456 5456 5455 5454 5454 5453 5452 5451 5450 5449 5448 5447 5447 5447 5446 5446 5446 5446 5446 5447 5447 5447 5447 5447 5447
5461 5459 5458 5457 5456 5455 5454 5454 5454 5453 5453 5453 5454 5454 5453 5453 5453 5453 5453 5452 5451 5450 5449 5448 5447 5446 5445 5444 5444 5443 5443 5442 5442 5442 5442 5443 5443 5443 5444 5444 5444 5444 5444
5456 5454 5453 5452 5451 5451 5450 5450 5450 5450 5450 5450 5450 5450 5450 5450 5449 5449 5449 5448 5447 5446 5445 5444 5443 5442 5441 5440 5440 5439 5439 5439 5439 5439 5439 5439 5440 5440 5441 5441 5441 5441 5442
5451 5450 5449 5448 5448 5447 5447 5447 5446 5446 5446 5446 5446 5446 5446 5446 5446 5445 5444 5444 5443 5442 5441 5439 5438 5438 5437 5436 5436 5435 5435 5435 5435 5435 5436 5436 5437 5437 5437 5438 5438 5438 5439
5447 5446 5445 5445 5444 5444 5443 5443 5443 5443 5443 5443 5443 5443 5442 5442 5442 5441 5440 5439 5438 5437 5436 5435 5434 5433 5433 5432 5431 5431 5431 5431 5431 5432 5432 5433 5433 5434 5434 5435 5435 5435 5436
5443 5442 5442 5441 5441 5440 5440 5440 5440 5439 5439 5439 5439 5439 5438 5438 5437 5437 5436 5435 5434 5433 5431 5430 5429 5429 5428 5428 5427 5427 5427 5428 5428 5428 5429 5429 5430 5431 5431 5431 5432 5432 5433
5440 5439 5438 5438 5437 5437 5437 5436 5436 5436 5435 5435 5435 5434 5434 5433 5433 5432 5431 5430 5430 5428 5427 5426 5425 5425 5424 5424 5424 5424 5424 5424 5424 5425 5425 5426 5427 5428 5428 5429 5429 5430 5430
5436 5436 5435 5434 5434 5433 5433 5432 5432 5432 5431 5431 5430 5430 5430 5429 5428 5428 5427 5426 5425 5424 5423 5423 5422 5421 5421 5421 5421 5421 5421 5421 5421 5422 5422 5423 5424 5425 5425 5426 5427 5427 5428